Regional Weather Roundup
Issued by NWS New Orleans/Baton Rouge, LA

Home | Current Version | Previous Version | Graphics & Text | Print | Product List | Glossary On
Versions: 1 2 3 4 5 6 7 8 9 10 11 12 13 14 15 16 17 18 19 20 21 22 23 24 25 26 27 28 29 30 31 32 33 34 35 36 37 38 39 40 41 42 43 44 45 46 47 48 49 50
086
ASUS44 KLIX 190807
RWRLIX
NEW ORLEANS REGIONAL WEATHER ROUNDUP
NATIONAL WEATHER SERVICE NEW ORLEANS LA
300 AM CDT SUN APR 19 2015

NOTE: "FAIR" INDICATES FEW OR NO CLOUDS BELOW 12,000 FEET WITH NO
      SIGNIFICANT WEATHER AND/OR OBSTRUCTIONS TO VISIBILITY.
      SKY/WX - SKY CONDITION AND SIGNIFICANT WEATHER.
      TMP - AIR TEMPERATURE.     DP    - DEWPOINT TEMPERATURE.
      RH  - RELATIVE HUMIDITY.   PRES  - PRESSURE.
      HI  - HEAT INDEX.          WCI   - WIND CHILL INDEX.

*  THESE STATIONS ARE NOT NWS OR FAA STATIONS AND ARE NOT UNDER
   NWS QUALITY CONTROL.

LAZ038-040-048-061>063-065>067-069-190900-
SOUTHEAST LOUISIANA

CITY           SKY/WX    TMP DP  RH WIND       PRES   REMARKS
N.O. AUDUBON   NOT AVBL
N.O. INTL ARPT PTCLDY    71  68  90 S8        29.79S
N.O. LAKEFRONT MOCLDY    74  69  85 S12       29.80S
SLIDELL        CLOUDY    72  70  93 S6        29.79S
BATON ROUGE    MOCLDY    71  69  93 SW12      29.79F
BOOTHVILLE     MOCLDY    73  71  93 S9        29.80R
BELLE CHASSE   PTCLDY    70  68  93 CALM      29.79S
BOGALUSA*        N/A     72  67  86 SW5       29.82R
GALLIANO*      PTSUNNY   70  69  95 CALM      29.79S
NEW ROADS*     PTSUNNY   70  69  97 S8        29.79F
GONZALES*      CLOUDY    72  72 100 SW3       29.79F
HAMMOND*       CLOUDY    72  66  83 SW5       29.81F
HOUMA*         MOCLDY    71  70  96 CALM      29.79F
PORT FOURCHON* NOT AVBL

$$

MSZ070-080>082-190900-
SOUTHERN MISSISSIPPI

CITY           SKY/WX    TMP DP  RH WIND       PRES   REMARKS
MCCOMB         CLOUDY    70  68  93 S8        29.79S
GULFPORT       CLOUDY    73  69  87 S8        29.79S
BILOXI         CLOUDY    73  71  94 S12       29.79F
PASCAGOULA     CLOUDY    72  69  90 S8        29.80F

$$

COASTAL OBSERVATIONS
LAKE AND NEARSHORE STATIONS

STATION/POSITION TIME  TEMP    WIND        PRES    WAVE
                       AIR SEA DIR/SP/G            HT/PER
                 (UTC) (F)     (DEG/KT/KT) (MB)    (FT/S)
PASCAGOULA       0700   74     150/  5/  8 1008.6
WAVELAND YACHT   0700   73 73  200/ 12/ 17 1008.9
GRAND ISLE       0700   74 75  230/  7/ 10 1008.7
SOUTHWEST PASS   0700   73 63  190/ 17/ 19 1008.8
NEW CANAL        0700   72     190/  8/ 11 1009.2
SHELL BEACH      0700   71 75  190/  8/ 12 1008.3

OFFSHORE STATIONS

STATION/POSITION TIME  TEMP    WIND        PRES    WAVE
                       AIR SEA DIR/SP/G            HT/PER
                 (UTC) (F)     (DEG/KT/KT) (MB)    (FT/S)
64 S DAUPHIN ISL 0750   75 74  160/ 16/ 17 1009.3    4/ 4

$$




USA.gov is the U.S. government's official web portal to all federal, state and local government web resources and services.